THY8XJ LTFM-LTCK

Flight info

Callsign THY8XJ
Flight time 1h 37m
Altitude 39000
Route VICEN1E/36 VICEN UT57 VEVUD UT341 BAG UL614 GOBIT UG8 MARTI UL614 EZS UT368 BAYIR
Aircraft A319/M-SDE3FGHIRWY/LB1

Departure

Time 2026-05-01 10:52
Airport İstanbul Airport (LTFM)

Arrival

Time 2026-05-01 12:29
Airport Muş Airport (LTCK)
Time Latitude Longitude Altitude Speed Heading
2026-05-01 10:32 41.26094 28.74908 334 ft 0 kts 251°
2026-05-01 10:44 41.26098 28.74923 334 ft 2 kts 250°
2026-05-01 10:45 41.26103 28.74943 334 ft 2 kts 251°
2026-05-01 10:45 41.26109 28.74963 334 ft 2 kts 251°
2026-05-01 10:45 41.26114 28.74983 334 ft 2 kts 250°
2026-05-01 10:45 41.26114 28.75002 334 ft 2 kts 295°
2026-05-01 10:46 41.26104 28.75017 334 ft 1 kts 332°
2026-05-01 10:46 41.26098 28.75020 334 ft 1 kts 347°
2026-05-01 10:46 41.26094 28.75022 334 ft 0 kts 343°
2026-05-01 10:48 41.26096 28.75021 334 ft 0 kts 342°
2026-05-01 10:49 41.26107 28.75016 334 ft 2 kts 341°
2026-05-01 10:49 41.26127 28.75007 334 ft 3 kts 341°
2026-05-01 10:49 41.26156 28.74994 334 ft 5 kts 341°
2026-05-01 10:49 41.26196 28.74986 334 ft 6 kts 13°
2026-05-01 10:50 41.26230 28.75031 334 ft 7 kts 89°
2026-05-01 10:50 41.26228 28.75107 334 ft 8 kts 88°
2026-05-01 10:50 41.26230 28.75192 334 ft 9 kts 89°
2026-05-01 10:50 41.26231 28.75291 334 ft 11 kts 88°
2026-05-01 10:51 41.26232 28.75398 334 ft 12 kts 90°
2026-05-01 10:51 41.26234 28.75514 334 ft 13 kts 87°
2026-05-01 10:51 41.26237 28.75639 334 ft 12 kts 75°
2026-05-01 10:51 41.26321 28.75669 334 ft 15 kts 359°
2026-05-01 10:52 41.26622 28.75664 334 ft 77 kts
2026-05-01 10:52 41.27375 28.75652 336 ft 137 kts
2026-05-01 10:52 41.28365 28.75630 887 ft 142 kts
2026-05-01 10:52 41.29320 28.75611 1641 ft 139 kts
2026-05-01 10:53 41.30233 28.75879 2346 ft 137 kts 29°
2026-05-01 10:53 41.31030 28.76654 2776 ft 151 kts 37°
2026-05-01 10:53 41.31953 28.77470 3171 ft 168 kts 33°
2026-05-01 10:53 41.32985 28.78343 3585 ft 185 kts 32°
2026-05-01 10:54 41.34137 28.79292 3961 ft 207 kts 32°
2026-05-01 10:54 41.35418 28.80316 4615 ft 219 kts 31°
2026-05-01 10:54 41.36728 28.81356 5376 ft 227 kts 33°
2026-05-01 10:54 41.37872 28.82875 5895 ft 247 kts 58°
2026-05-01 10:55 41.38383 28.85094 6674 ft 260 kts 83°
2026-05-01 10:55 41.38413 28.87502 7558 ft 265 kts 86°
2026-05-01 10:55 41.38425 28.89960 8390 ft 271 kts 87°
2026-05-01 10:55 41.38434 28.92487 9202 ft 277 kts 90°
2026-05-01 10:56 41.38084 28.95030 9964 ft 287 kts 108°
2026-05-01 10:56 41.37135 28.97437 10634 ft 299 kts 122°
2026-05-01 10:56 41.35930 28.99769 11065 ft 317 kts 124°
2026-05-01 10:56 41.34623 29.02209 11616 ft 329 kts 125°
2026-05-01 10:57 41.33277 29.04727 12376 ft 334 kts 125°
2026-05-01 10:57 41.31933 29.07264 13117 ft 337 kts 125°
2026-05-01 10:57 41.30574 29.09843 13810 ft 342 kts 126°
2026-05-01 10:57 41.29215 29.12427 14480 ft 347 kts 126°
2026-05-01 10:58 41.27816 29.15096 15144 ft 351 kts 126°
2026-05-01 10:58 41.26396 29.17804 15780 ft 356 kts 126°
2026-05-01 10:58 41.24971 29.20521 16382 ft 361 kts 127°
2026-05-01 10:58 41.23534 29.23262 16981 ft 365 kts 127°
2026-05-01 10:59 41.22068 29.26057 17572 ft 370 kts 127°
2026-05-01 10:59 41.20575 29.28903 17991 ft 380 kts 127°
2026-05-01 10:59 41.19034 29.31833 18481 ft 387 kts 128°
2026-05-01 10:59 41.17474 29.34796 19102 ft 390 kts 128°
2026-05-01 11:00 41.15924 29.37742 19734 ft 392 kts 128°
2026-05-01 11:00 41.14347 29.40739 20345 ft 395 kts 129°
2026-05-01 11:00 41.12779 29.43711 20936 ft 398 kts 129°
2026-05-01 11:00 41.11165 29.46769 21532 ft 401 kts 129°
2026-05-01 11:01 41.09545 29.49832 22100 ft 403 kts 129°
2026-05-01 11:01 41.07924 29.52898 22652 ft 406 kts 129°
2026-05-01 11:01 41.06306 29.55953 23184 ft 409 kts 130°
2026-05-01 11:01 41.04659 29.59059 23718 ft 412 kts 130°
2026-05-01 11:02 41.02994 29.62198 24252 ft 414 kts 130°
2026-05-01 11:02 41.01346 29.65299 24750 ft 416 kts 131°
2026-05-01 11:02 40.99651 29.68487 25240 ft 418 kts 131°
2026-05-01 11:02 40.97971 29.71644 25712 ft 421 kts 131°
2026-05-01 11:03 40.96279 29.74821 26179 ft 423 kts 131°
2026-05-01 11:03 40.94575 29.78018 26633 ft 425 kts 131°
2026-05-01 11:03 40.92886 29.81182 27054 ft 427 kts 131°
2026-05-01 11:03 40.91164 29.84406 27478 ft 430 kts 131°
2026-05-01 11:04 40.89417 29.87667 27889 ft 432 kts 131°
2026-05-01 11:04 40.87667 29.90934 28307 ft 435 kts 131°
2026-05-01 11:04 40.85917 29.94202 28720 ft 437 kts 132°
2026-05-01 11:04 40.84172 29.97456 29129 ft 439 kts 132°
2026-05-01 11:05 40.82396 30.00761 29536 ft 440 kts 132°
2026-05-01 11:05 40.80622 30.04061 29901 ft 443 kts 132°
2026-05-01 11:05 40.78834 30.07384 30240 ft 446 kts 132°
2026-05-01 11:05 40.77021 30.10751 30611 ft 448 kts 132°
2026-05-01 11:06 40.75207 30.14113 30917 ft 451 kts 132°
2026-05-01 11:06 40.73382 30.17495 31211 ft 453 kts 132°
2026-05-01 11:06 40.71556 30.20874 31587 ft 453 kts 132°
2026-05-01 11:07 40.67865 30.27694 32315 ft 453 kts 132°
2026-05-01 11:07 40.66015 30.31029 32632 ft 452 kts 134°
2026-05-01 11:07 40.64085 30.34333 32990 ft 452 kts 134°
2026-05-01 11:07 40.62181 30.37574 33336 ft 452 kts 134°
2026-05-01 11:08 40.60238 30.40881 33668 ft 452 kts 134°
2026-05-01 11:08 40.58335 30.44142 33998 ft 453 kts 133°
2026-05-01 11:08 40.54936 30.51221 34575 ft 462 kts 123°
2026-05-01 11:09 40.53533 30.55057 34880 ft 466 kts 118°
2026-05-01 11:09 40.52365 30.59027 35168 ft 470 kts 114°
2026-05-01 11:09 40.51419 30.63197 35449 ft 474 kts 108°
2026-05-01 11:10 40.49964 30.71639 36010 ft 474 kts 108°
2026-05-01 11:10 40.49130 30.75856 36283 ft 470 kts 111°
2026-05-01 11:10 40.48188 30.79932 36518 ft 470 kts 112°
2026-05-01 11:10 40.47211 30.84040 36710 ft 471 kts 112°
2026-05-01 11:11 40.46244 30.88082 36921 ft 471 kts 112°
2026-05-01 11:11 40.45270 30.92163 37171 ft 471 kts 112°
2026-05-01 11:11 40.43301 31.00406 37504 ft 474 kts 111°
2026-05-01 11:12 40.41320 31.08707 37733 ft 476 kts 111°
2026-05-01 11:12 40.40326 31.12858 37881 ft 478 kts 111°
2026-05-01 11:12 40.39330 31.17007 38049 ft 479 kts 111°
2026-05-01 11:13 40.38344 31.21228 38230 ft 481 kts 109°
2026-05-01 11:13 40.37517 31.25525 38386 ft 483 kts 105°
2026-05-01 11:13 40.36808 31.29834 38549 ft 484 kts 104°
2026-05-01 11:13 40.36117 31.34152 38683 ft 485 kts 104°
2026-05-01 11:14 40.35415 31.38525 38819 ft 487 kts 104°
2026-05-01 11:14 40.34711 31.42902 38938 ft 487 kts 104°
2026-05-01 11:14 40.33295 31.51603 38987 ft 489 kts 104°
2026-05-01 11:15 40.31860 31.60342 38990 ft 490 kts 104°
2026-05-01 11:15 40.30431 31.69004 38983 ft 490 kts 105°
2026-05-01 11:16 40.28977 31.77773 38969 ft 488 kts 105°
2026-05-01 11:16 40.27528 31.86444 38963 ft 488 kts 105°
2026-05-01 11:17 40.25932 31.95076 38963 ft 485 kts 109°
2026-05-01 11:17 40.24082 32.03608 38966 ft 485 kts 109°
2026-05-01 11:18 40.22221 32.12116 38975 ft 486 kts 109°
2026-05-01 11:18 40.20354 32.20659 38976 ft 486 kts 109°
2026-05-01 11:19 40.18489 32.29185 38980 ft 486 kts 109°
2026-05-01 11:19 40.16624 32.37674 38969 ft 485 kts 109°
2026-05-01 11:20 40.14737 32.46223 38973 ft 485 kts 109°
2026-05-01 11:20 40.12875 32.54636 38961 ft 484 kts 109°
2026-05-01 11:21 40.10998 32.63092 38956 ft 484 kts 109°
2026-05-01 11:21 40.09103 32.71583 38959 ft 484 kts 110°
2026-05-01 11:22 40.07199 32.80006 38961 ft 484 kts 111°
2026-05-01 11:22 40.04900 32.88224 38974 ft 482 kts 115°
2026-05-01 11:23 40.02497 32.96342 38960 ft 482 kts 115°
2026-05-01 11:23 40.00080 33.04508 38956 ft 482 kts 115°
2026-05-01 11:24 39.97665 33.12672 38954 ft 482 kts 115°
2026-05-01 11:25 39.94038 33.24902 38934 ft 481 kts 115°
2026-05-01 11:25 39.90414 33.37071 38927 ft 480 kts 115°
2026-05-01 11:26 39.86772 33.49234 38915 ft 480 kts 115°
2026-05-01 11:27 39.84334 33.57350 38914 ft 480 kts 114°
2026-05-01 11:27 39.82268 33.65583 38912 ft 483 kts 109°
2026-05-01 11:28 39.80568 33.74068 38908 ft 482 kts 108°
2026-05-01 11:28 39.78872 33.82507 38905 ft 482 kts 108°
2026-05-01 11:29 39.75882 33.94912 38893 ft 479 kts 114°
2026-05-01 11:30 39.72390 34.07133 38899 ft 479 kts 113°
2026-05-01 11:30 39.70082 34.15281 38896 ft 479 kts 114°
2026-05-01 11:31 39.67766 34.23416 38907 ft 478 kts 114°
2026-05-01 11:31 39.65449 34.31522 38897 ft 479 kts 114°
2026-05-01 11:32 39.63126 34.39616 38910 ft 479 kts 114°
2026-05-01 11:32 39.60788 34.47734 38914 ft 479 kts 114°
2026-05-01 11:33 39.58432 34.55888 38914 ft 479 kts 114°
2026-05-01 11:33 39.56086 34.63985 38921 ft 479 kts 113°
2026-05-01 11:34 39.53737 34.72078 38913 ft 477 kts 114°
2026-05-01 11:34 39.51404 34.80077 38910 ft 477 kts 114°
2026-05-01 11:35 39.49102 34.87968 38926 ft 457 kts 114°
2026-05-01 11:35 39.46868 34.95593 38929 ft 444 kts 115°
2026-05-01 11:36 39.44688 35.02997 38922 ft 435 kts 114°
2026-05-01 11:36 39.42552 35.10237 38927 ft 427 kts 115°
2026-05-01 11:37 39.40452 35.17336 38926 ft 419 kts 115°
2026-05-01 11:37 39.38411 35.24346 38927 ft 413 kts 114°
2026-05-01 11:38 39.36420 35.31250 38925 ft 407 kts 114°
2026-05-01 11:38 39.34440 35.38088 38935 ft 402 kts 115°
2026-05-01 11:39 39.32487 35.44793 38940 ft 397 kts 114°
2026-05-01 11:39 39.30542 35.51460 38942 ft 393 kts 114°
2026-05-01 11:40 39.28609 35.58070 38957 ft 389 kts 114°
2026-05-01 11:40 39.26712 35.64540 38963 ft 386 kts 114°
2026-05-01 11:41 39.24804 35.71032 38980 ft 382 kts 115°
2026-05-01 11:41 39.22926 35.77412 38980 ft 378 kts 115°
2026-05-01 11:42 39.21022 35.83848 38978 ft 387 kts 115°
2026-05-01 11:42 39.19053 35.90490 38973 ft 398 kts 115°
2026-05-01 11:43 39.17056 35.97216 38963 ft 409 kts 115°
2026-05-01 11:43 39.15287 36.04331 38956 ft 423 kts 107°
2026-05-01 11:44 39.14180 36.11964 38963 ft 435 kts 102°
2026-05-01 11:44 39.13711 36.15798 38974 ft 440 kts 102°
2026-05-01 11:44 39.12732 36.23719 38989 ft 449 kts 102°
2026-05-01 11:45 39.11716 36.31750 38987 ft 458 kts 102°
2026-05-01 11:45 39.10668 36.39948 38992 ft 467 kts 102°
2026-05-01 11:46 39.09586 36.48333 39011 ft 476 kts 102°
2026-05-01 11:46 39.08488 36.56791 39014 ft 479 kts 102°
2026-05-01 11:47 39.07385 36.65252 39026 ft 480 kts 102°
2026-05-01 11:47 39.06270 36.73742 39032 ft 480 kts 102°
2026-05-01 11:48 39.05150 36.82219 39035 ft 480 kts 102°
2026-05-01 11:48 39.04017 36.90745 39043 ft 480 kts 102°
2026-05-01 11:49 39.02886 36.99209 39041 ft 479 kts 102°
2026-05-01 11:49 39.01751 37.07650 39053 ft 478 kts 102°
2026-05-01 11:50 39.00607 37.16109 39049 ft 477 kts 102°
2026-05-01 11:50 38.99465 37.24506 39047 ft 477 kts 102°
2026-05-01 11:51 38.98315 37.32917 39046 ft 477 kts 102°
2026-05-01 11:51 38.97155 37.41354 39042 ft 477 kts 102°
2026-05-01 11:52 38.95991 37.49771 39048 ft 478 kts 102°
2026-05-01 11:52 38.94820 37.58188 39042 ft 478 kts 102°
2026-05-01 11:53 38.93653 37.66541 39040 ft 478 kts 103°
2026-05-01 11:53 38.92461 37.75022 39043 ft 478 kts 103°
2026-05-01 11:54 38.91278 37.83393 39052 ft 477 kts 103°
2026-05-01 11:54 38.90089 37.91774 39054 ft 476 kts 103°
2026-05-01 11:55 38.88892 38.00146 39055 ft 475 kts 103°
2026-05-01 11:55 38.87699 38.08451 39041 ft 475 kts 103°
2026-05-01 11:56 38.86493 38.16806 39032 ft 475 kts 103°
2026-05-01 11:56 38.85283 38.25132 39025 ft 475 kts 103°
2026-05-01 11:57 38.84067 38.33467 39014 ft 475 kts 103°
2026-05-01 11:57 38.82837 38.41857 39010 ft 476 kts 103°
2026-05-01 11:58 38.81610 38.50191 39006 ft 477 kts 103°
2026-05-01 11:59 38.79745 38.62752 39005 ft 477 kts 103°
2026-05-01 11:59 38.78490 38.71160 39007 ft 476 kts 104°
2026-05-01 12:00 38.76607 38.83667 39021 ft 476 kts 104°
2026-05-01 12:01 38.74727 38.96195 39005 ft 475 kts 103°
2026-05-01 12:01 38.73499 39.04532 39004 ft 475 kts 103°
2026-05-01 12:02 38.72259 39.12862 39012 ft 476 kts 103°
2026-05-01 12:02 38.71069 39.21216 39020 ft 477 kts 100°
2026-05-01 12:03 38.70460 39.29717 39018 ft 480 kts 95°
2026-05-01 12:03 38.70089 39.38272 39020 ft 481 kts 95°
2026-05-01 12:03 38.69899 39.42553 38787 ft 480 kts 95°
2026-05-01 12:04 38.69704 39.46825 38533 ft 478 kts 95°
2026-05-01 12:04 38.69503 39.51067 38289 ft 475 kts 95°
2026-05-01 12:04 38.69305 39.55253 38044 ft 472 kts 95°
2026-05-01 12:04 38.69119 39.59381 37800 ft 470 kts 95°
2026-05-01 12:05 38.68934 39.63530 37549 ft 469 kts 95°
2026-05-01 12:05 38.68560 39.71825 37050 ft 468 kts 96°
2026-05-01 12:05 38.68368 39.76003 36764 ft 468 kts 96°
2026-05-01 12:06 38.68175 39.80179 36478 ft 468 kts 96°
2026-05-01 12:06 38.67979 39.84361 36232 ft 468 kts 96°
2026-05-01 12:06 38.67784 39.88507 35943 ft 469 kts 95°
2026-05-01 12:06 38.67585 39.92685 35533 ft 469 kts 95°
2026-05-01 12:07 38.67387 39.96836 35009 ft 470 kts 95°
2026-05-01 12:07 38.67187 40.00999 34379 ft 472 kts 95°
2026-05-01 12:07 38.66983 40.05184 33642 ft 473 kts 95°
2026-05-01 12:07 38.66777 40.09396 32919 ft 474 kts 95°
2026-05-01 12:08 38.66571 40.13602 32201 ft 475 kts 95°
2026-05-01 12:08 38.66363 40.17815 31476 ft 475 kts 95°
2026-05-01 12:08 38.66153 40.22030 30744 ft 475 kts 95°
2026-05-01 12:08 38.65949 40.26180 30199 ft 465 kts 95°
2026-05-01 12:09 38.65749 40.30269 29734 ft 455 kts 95°
2026-05-01 12:09 38.65554 40.34256 29262 ft 446 kts 95°
2026-05-01 12:09 38.65360 40.38171 28793 ft 438 kts 95°
2026-05-01 12:09 38.65166 40.42015 28329 ft 435 kts 95°
2026-05-01 12:10 38.64973 40.45831 27860 ft 432 kts 95°
2026-05-01 12:10 38.64585 40.53410 26924 ft 425 kts 95°
2026-05-01 12:10 38.64393 40.57156 26464 ft 421 kts 95°
2026-05-01 12:11 38.64010 40.64533 25559 ft 414 kts 95°
2026-05-01 12:11 38.63818 40.68201 25107 ft 411 kts 96°
2026-05-01 12:11 38.63628 40.71811 24655 ft 407 kts 96°
2026-05-01 12:12 38.63438 40.75394 24209 ft 404 kts 96°
2026-05-01 12:12 38.63247 40.78948 23768 ft 401 kts 96°
2026-05-01 12:12 38.63059 40.82467 23333 ft 398 kts 96°
2026-05-01 12:12 38.62858 40.85977 22865 ft 395 kts 96°
2026-05-01 12:13 38.62649 40.89446 22402 ft 391 kts 96°
2026-05-01 12:13 38.62437 40.92928 21944 ft 388 kts 96°
2026-05-01 12:13 38.62229 40.96346 21495 ft 385 kts 96°
2026-05-01 12:13 38.62024 40.99702 21056 ft 383 kts 96°
2026-05-01 12:14 38.61818 41.03083 20608 ft 380 kts 96°
2026-05-01 12:14 38.61614 41.06403 20172 ft 377 kts 96°
2026-05-01 12:14 38.61406 41.09776 19724 ft 375 kts 96°
2026-05-01 12:14 38.61204 41.13037 19284 ft 373 kts 96°
2026-05-01 12:15 38.60998 41.16342 18843 ft 371 kts 97°
2026-05-01 12:15 38.60795 41.19600 18412 ft 369 kts 97°
2026-05-01 12:15 38.60591 41.22865 17971 ft 368 kts 97°
2026-05-01 12:15 38.60385 41.26122 17541 ft 366 kts 96°
2026-05-01 12:16 38.60182 41.29315 17109 ft 364 kts 96°
2026-05-01 12:16 38.59978 41.32519 16671 ft 363 kts 97°
2026-05-01 12:16 38.59773 41.35725 16245 ft 361 kts 96°
2026-05-01 12:16 38.59739 41.38944 15787 ft 361 kts 83°
2026-05-01 12:17 38.60471 41.41997 15292 ft 362 kts 63°
2026-05-01 12:17 38.61861 41.44629 14768 ft 355 kts 52°
2026-05-01 12:17 38.63382 41.47054 14205 ft 348 kts 50°
2026-05-01 12:17 38.64876 41.49414 13648 ft 341 kts 51°
2026-05-01 12:18 38.66330 41.51756 13247 ft 325 kts 51°
2026-05-01 12:18 38.67666 41.53945 13099 ft 301 kts 52°
2026-05-01 12:18 38.68907 41.55994 12975 ft 280 kts 52°
2026-05-01 12:18 38.70064 41.57913 12860 ft 269 kts 52°
2026-05-01 12:19 38.71201 41.59803 12746 ft 265 kts 52°
2026-05-01 12:19 38.72303 41.61636 12645 ft 262 kts 52°
2026-05-01 12:19 38.73424 41.63500 12541 ft 259 kts 52°
2026-05-01 12:19 38.74400 41.65396 12417 ft 256 kts 71°
2026-05-01 12:20 38.74661 41.67604 12221 ft 252 kts 100°
2026-05-01 12:20 38.74195 41.69758 11932 ft 251 kts 112°
2026-05-01 12:20 38.73599 41.71874 11644 ft 254 kts 112°
2026-05-01 12:20 38.73006 41.74003 11349 ft 256 kts 112°
2026-05-01 12:21 38.72424 41.76155 11054 ft 257 kts 111°
2026-05-01 12:21 38.71858 41.78294 10780 ft 256 kts 111°
2026-05-01 12:21 38.71296 41.80441 10489 ft 254 kts 110°
2026-05-01 12:21 38.70737 41.82589 10200 ft 251 kts 110°
2026-05-01 12:22 38.70192 41.84692 9919 ft 249 kts 110°
2026-05-01 12:22 38.69656 41.86756 9659 ft 242 kts 110°
2026-05-01 12:22 38.69141 41.88745 9463 ft 228 kts 111°
2026-05-01 12:22 38.68657 41.90620 9554 ft 220 kts 111°
2026-05-01 12:23 38.68169 41.92479 9507 ft 219 kts 113°
2026-05-01 12:23 38.67348 41.94054 9248 ft 211 kts 147°
2026-05-01 12:23 38.66031 41.94626 8996 ft 199 kts 181°
2026-05-01 12:23 38.64750 41.94127 8836 ft 195 kts 217°
2026-05-01 12:24 38.64001 41.92693 8799 ft 197 kts 254°
2026-05-01 12:24 38.64085 41.90960 8556 ft 199 kts 290°
2026-05-01 12:24 38.64888 41.89529 8264 ft 199 kts 310°
2026-05-01 12:24 38.65828 41.88236 7968 ft 196 kts 307°
2026-05-01 12:25 38.66609 41.86874 7676 ft 184 kts 300°
2026-05-01 12:25 38.67834 41.84119 7172 ft 177 kts 295°
2026-05-01 12:25 38.68382 41.82742 6938 ft 173 kts 294°
2026-05-01 12:26 38.68918 41.81354 6679 ft 173 kts 293°
2026-05-01 12:26 38.69952 41.78651 6161 ft 163 kts 293°
2026-05-01 12:26 38.70441 41.77379 5899 ft 151 kts 294°
2026-05-01 12:27 38.70886 41.76228 5661 ft 142 kts 292°
2026-05-01 12:27 38.71748 41.73983 5288 ft 141 kts 292°
2026-05-01 12:28 38.72600 41.71740 4890 ft 139 kts 293°
2026-05-01 12:28 38.73033 41.70640 4690 ft 137 kts 294°
2026-05-01 12:28 38.73882 41.68433 4296 ft 137 kts 294°
2026-05-01 12:29 38.74298 41.67361 4170 ft 128 kts 295°
2026-05-01 12:29 38.74618 41.66511 4168 ft 82 kts 294°
2026-05-01 12:29 38.74952 41.65676 4168 ft 41 kts 295°
2026-05-01 12:30 38.75175 41.65101 4168 ft 30 kts 296°
2026-05-01 12:30 38.75263 41.64875 4169 ft 26 kts 295°
2026-05-01 12:30 38.75338 41.64681 4169 ft 22 kts 296°
2026-05-01 12:31 38.75405 41.64508 4169 ft 20 kts 297°
2026-05-01 12:31 38.75475 41.64384 4169 ft 15 kts 351°
2026-05-01 12:31 38.75567 41.64428 4169 ft 13 kts 25°
2026-05-01 12:31 38.75640 41.64473 4171 ft 9 kts 26°
2026-05-01 12:32 38.75691 41.64506 4172 ft 7 kts 26°
2026-05-01 12:32 38.75797 41.64573 4172 ft 10 kts 30°
2026-05-01 12:32 38.75850 41.64619 4172 ft 8 kts 54°
2026-05-01 12:33 38.75861 41.64653 4172 ft 0 kts 70°